Wind_Speed
25 25 26 26 27 27 27 28 29 30 31 32 33 34 35 35 36 37 37 38 39 40 41 42 43 45 46 47 47 48 48 49 49 49 49 50 51 52 52 52 52 51 51
23 23 24 24 24 24 24 26 28 29 30 31 32 32 33 33 33 33 34 35 36 37 40 41 42 44 45 45 46 47 47 48 49 48 49 50 50 49 50 51 51 51 51
20 21 21 22 22 22 23 25 26 27 27 28 29 29 29 29 30 30 31 33 35 37 38 40 41 41 42 43 45 46 46 47 47 47 46 47 47 48 49 50 50 50 51
18 19 19 20 21 21 22 23 23 23 23 24 25 26 27 27 28 29 30 32 34 35 37 38 39 40 41 42 43 44 45 46 47 47 47 47 48 49 50 50 50 51 52
17 18 18 19 19 20 20 20 20 21 21 22 23 23 24 25 27 29 31 32 33 35 36 38 39 39 41 42 43 44 45 46 47 48 49 49 49 50 50 50 50 51 52
16 16 17 17 17 18 18 18 19 19 19 20 20 22 24 25 27 28 30 31 33 34 35 36 38 39 41 42 43 44 44 45 47 48 49 49 49 49 49 50 50 50 51
16 16 15 16 16 17 17 18 19 20 20 22 22 23 24 25 27 28 29 30 32 33 34 36 37 39 39 41 42 42 43 44 45 46 47 48 49 49 50 50 51 51 52
17 17 17 17 17 17 18 18 19 20 21 22 23 24 25 27 28 29 30 31 32 33 34 36 37 38 40 41 41 42 42 44 45 46 47 47 48 48 49 50 51 52 53
18 18 18 18 18 18 19 20 21 21 22 23 24 25 26 27 28 29 30 31 32 33 34 35 36 38 40 40 41 41 42 42 43 44 45 46 47 48 50 51 52 53 53
18 19 19 19 20 20 21 21 21 22 22 23 24 26 27 28 29 30 30 31 32 33 35 35 36 37 38 39 40 40 41 41 43 43 45 46 47 49 51 52 53 53 52
19 20 21 21 22 22 22 22 22 23 23 24 26 27 28 29 30 31 32 33 34 34 35 36 38 39 39 39 40 41 41 42 43 44 45 46 48 49 50 51 52 51 49
22 22 22 23 23 23 23 23 23 24 25 26 27 29 30 31 32 33 34 35 36 37 37 38 38 39 39 40 41 42 42 43 43 44 45 46 47 48 49 49 49 48 47
24 24 24 25 25 25 25 25 25 26 26 27 28 29 30 31 32 34 36 37 38 38 39 39 39 40 41 41 42 43 43 43 44 44 45 46 46 47 46 46 45 45 44
26 26 26 27 26 27 27 27 28 28 29 30 31 31 32 33 34 35 37 38 39 39 40 40 40 41 41 42 43 43 43 44 44 45 45 45 45 44 44 43 43 42 42
29 29 29 29 29 29 29 29 30 30 31 32 33 33 34 35 36 38 38 38 39 40 40 40 40 41 41 42 43 43 44 44 44 44 44 44 44 43 42 42 41 41 41
30 30 30 30 31 31 32 32 32 32 33 33 34 35 35 37 38 39 38 38 39 39 39 39 39 40 41 41 42 42 43 43 43 43 42 42 42 41 41 40 39 39 38
33 33 33 33 33 33 33 34 34 34 34 35 36 37 37 38 38 38 38 38 39 39 38 38 38 39 40 41 41 41 41 41 41 41 40 40 39 39 37 36 36 35 35
34 34 34 34 35 35 35 35 35 35 36 37 37 38 38 38 39 38 38 38 38 38 38 38 38 39 40 40 40 40 39 39 39 39 39 38 37 37 35 34 34 33 32
36 36 36 36 36 36 37 36 36 36 37 37 38 38 39 39 39 39 39 39 39 38 38 38 39 39 40 40 39 39 38 38 38 38 38 37 36 35 33 32 32 31 30
38 37 38 37 37 37 37 37 37 37 38 38 38 38 39 39 39 39 39 39 39 39 39 39 39 39 39 39 39 38 38 38 37 37 36 35 34 32 31 30 29 28 28
38 38 37 37 37 37 37 37 37 38 38 38 38 39 39 40 39 39 39 39 39 39 39 39 39 39 39 39 38 37 37 37 36 35 35 34 33 31 29 29 28 27 26
37 37 37 37 37 37 37 37 37 37 38 38 38 39 39 39 39 39 39 40 40 40 39 39 38 38 38 37 36 36 36 35 34 33 33 32 31 29 28 27 26 25 25
38 38 37 37 37 38 38 37 37 37 37 37 38 39 39 39 38 39 39 39 39 39 38 38 38 37 36 36 36 35 34 34 33 32 32 31 29 28 27 26 24 24 23
38 38 38 38 38 38 38 38 37 37 37 38 38 38 38 38 39 39 38 38 38 38 38 37 36 36 35 35 35 34 33 32 31 31 30 29 28 27 26 24 23 22 21
37 37 38 38 37 37 37 37 37 37 37 38 38 38 38 39 38 38 37 37 37 37 36 35 35 34 34 34 34 33 32 31 30 30 29 28 27 25 24 22 21 20 19
36 36 36 36 36 36 36 37 37 37 37 37 37 37 37 37 37 36 36 36 36 36 35 34 34 33 33 33 32 31 30 29 29 28 27 26 25 23 22 20 19 18 18
Wind_Direction
278 278 276 275 274 274 273 271 271 271 270 268 269 268 268 268 267 267 265 265 264 264 265 267 268 270 270 270 270 271 272 272 273 274 274 274 275 276 275 274 275 276 277
280 279 277 277 277 276 275 274 273 273 271 271 271 270 269 267 266 266 267 267 267 268 268 269 270 271 270 270 271 272 273 273 274 275 276 276 276 276 275 275 275 276 277
283 281 280 279 278 278 277 277 277 276 274 273 273 272 271 270 269 268 270 270 271 271 272 273 273 273 273 273 273 274 273 273 274 275 277 276 277 277 277 277 276 277 277
286 286 283 282 281 281 280 281 279 278 278 277 276 276 275 274 275 274 274 274 274 274 273 273 273 274 275 274 275 275 274 273 274 276 278 278 278 278 278 278 278 278 279
290 289 287 285 284 284 284 285 285 283 281 281 280 281 280 280 280 279 278 278 278 277 276 276 276 276 277 277 277 277 276 275 276 276 277 277 277 279 280 279 279 279 279
293 296 294 291 291 290 290 289 289 287 285 286 285 286 287 285 285 284 283 281 281 282 281 279 279 279 280 280 281 280 279 278 278 278 278 278 279 280 280 279 280 280 280
292 295 297 295 294 293 293 293 294 293 291 290 290 291 291 291 290 290 289 287 285 284 283 282 281 282 282 283 283 283 282 282 281 281 280 280 280 279 279 280 281 281 282
288 294 297 298 297 297 298 299 298 297 296 295 293 293 292 292 293 293 292 291 290 288 287 286 285 284 284 286 285 285 285 285 285 284 283 282 281 281 281 281 282 282 283
288 292 294 296 297 298 300 300 299 297 296 296 296 295 295 295 295 295 295 294 293 292 291 292 290 288 287 287 287 288 288 288 288 287 285 284 283 283 283 283 283 284 284
290 291 293 296 297 296 297 299 300 299 297 297 296 297 297 298 298 297 296 296 296 295 293 293 293 293 292 291 290 291 291 290 290 289 288 286 286 285 285 285 285 285 285
291 292 294 296 298 298 298 298 298 298 298 298 298 298 298 299 299 299 298 299 299 297 296 295 295 294 294 293 293 293 293 292 291 290 290 289 289 288 287 287 287 287 286
288 291 293 295 297 298 297 297 297 298 298 299 300 301 301 301 300 300 300 301 301 300 298 297 296 295 295 295 295 295 295 294 293 293 293 292 291 291 290 289 288 286 286
285 288 290 292 294 295 296 295 295 296 298 300 303 304 304 303 303 303 303 302 301 300 300 299 297 296 296 296 296 296 295 295 295 295 295 294 293 293 292 290 288 287 287
283 285 287 290 293 294 294 293 293 294 296 299 301 303 303 304 305 305 304 303 303 302 301 299 297 296 296 296 296 296 297 297 296 296 296 296 295 293 292 290 288 288 288
282 284 286 287 289 292 294 294 293 293 295 297 299 301 303 305 306 306 306 305 303 303 302 300 299 298 298 299 299 299 298 299 299 298 297 295 294 293 292 290 289 289 289
281 283 285 287 289 291 293 293 293 293 294 296 298 300 302 304 305 306 306 306 305 304 302 301 301 300 301 301 300 300 300 300 300 300 299 297 296 294 292 291 290 290 289
281 282 284 286 288 290 292 293 293 293 293 296 298 300 301 302 304 306 306 306 305 304 303 302 301 302 303 303 303 302 302 302 301 301 301 300 298 296 294 293 292 292 291
280 281 283 285 287 289 291 293 292 293 294 295 297 299 299 301 304 305 305 306 305 304 303 303 302 303 304 304 304 304 304 303 303 303 303 303 301 298 296 294 292 292 292
279 281 283 285 286 288 290 291 292 292 294 295 297 298 300 302 303 304 304 305 305 304 304 304 304 304 305 305 305 304 304 304 304 304 304 304 302 300 297 295 294 293 293
278 280 282 283 285 287 288 289 291 292 293 294 296 298 299 301 302 302 303 304 304 304 303 303 304 305 305 306 306 305 304 303 303 304 304 303 302 301 299 297 295 295 294
278 279 281 282 284 285 287 288 290 291 293 294 296 298 300 301 302 302 302 303 304 303 303 303 304 305 305 306 306 306 305 305 304 304 304 304 302 300 299 298 296 295 294
278 280 281 281 283 284 286 288 289 290 292 294 296 298 300 301 302 301 302 303 304 303 303 303 304 305 306 307 308 307 306 306 306 305 305 304 302 301 300 298 297 296 296
277 278 279 281 282 283 285 286 288 290 291 294 296 298 300 301 301 301 302 303 303 303 303 304 304 305 306 307 308 308 307 306 305 305 305 304 303 301 299 298 297 298 297
277 277 278 280 282 283 285 286 287 289 291 294 296 298 299 300 301 301 302 303 304 304 304 304 304 305 305 306 308 308 307 306 305 305 305 304 302 301 300 298 298 298 296
277 277 279 280 281 282 284 286 287 289 292 294 295 297 299 301 302 302 302 303 305 306 305 305 305 305 306 307 309 309 308 306 305 305 304 303 301 300 299 298 297 297 295
277 278 279 280 281 282 284 285 287 289 291 293 295 297 299 301 301 302 303 304 306 307 306 306 306 306 307 308 309 309 308 306 305 305 304 303 302 300 298 297 296 296 294
Height
5658 5657 5656 5655 5654 5653 5653 5652 5652 5652 5652 5652 5652 5652 5652 5652 5652 5652 5652 5653 5654 5654 5655 5655 5656 5656 5655 5655 5654 5654 5653 5653 5653 5655 5654 5653 5651 5650 5649 5648 5648 5647 5646
5653 5651 5650 5649 5648 5647 5646 5646 5645 5645 5645 5645 5644 5644 5644 5644 5644 5644 5644 5645 5645 5645 5645 5645 5645 5644 5644 5643 5642 5642 5641 5641 5640 5641 5641 5639 5638 5636 5635 5634 5633 5633 5632
5648 5646 5645 5644 5642 5641 5640 5640 5639 5638 5638 5637 5637 5637 5637 5637 5636 5636 5637 5636 5636 5636 5636 5635 5634 5633 5632 5631 5630 5630 5629 5628 5627 5627 5627 5625 5624 5622 5621 5620 5619 5618 5617
5643 5642 5640 5639 5637 5636 5635 5634 5633 5632 5632 5631 5631 5630 5630 5630 5630 5629 5629 5628 5628 5627 5626 5625 5624 5623 5621 5620 5619 5618 5616 5615 5614 5613 5613 5612 5610 5609 5607 5606 5605 5604 5602
5639 5637 5636 5634 5633 5631 5630 5629 5628 5627 5626 5626 5625 5624 5624 5623 5623 5622 5621 5620 5619 5618 5617 5615 5614 5613 5611 5609 5607 5606 5604 5602 5601 5600 5599 5598 5596 5595 5593 5592 5590 5589 5587
5635 5633 5632 5630 5629 5627 5626 5625 5624 5623 5622 5621 5620 5619 5618 5617 5615 5614 5613 5611 5610 5608 5607 5605 5604 5602 5600 5598 5596 5593 5591 5589 5587 5586 5585 5583 5582 5581 5579 5577 5576 5574 5573
5631 5630 5628 5626 5625 5623 5622 5621 5619 5618 5617 5616 5615 5613 5612 5611 5609 5607 5604 5603 5601 5599 5597 5595 5593 5591 5589 5586 5583 5581 5578 5576 5574 5572 5570 5569 5568 5566 5565 5563 5560 5558 5556
5627 5625 5624 5622 5621 5619 5618 5616 5614 5613 5612 5610 5609 5607 5606 5604 5602 5599 5597 5594 5592 5590 5587 5585 5583 5580 5578 5575 5572 5569 5566 5564 5561 5559 5557 5555 5553 5551 5549 5547 5544 5542 5540
5622 5621 5620 5618 5617 5615 5613 5611 5610 5608 5606 5605 5603 5601 5599 5597 5594 5591 5589 5586 5583 5580 5578 5575 5572 5569 5566 5563 5560 5558 5555 5552 5548 5545 5543 5540 5538 5536 5533 5531 5528 5526 5524
5618 5616 5615 5614 5612 5610 5608 5606 5604 5602 5600 5599 5597 5594 5592 5589 5586 5583 5580 5577 5574 5571 5568 5565 5562 5559 5555 5551 5549 5546 5543 5540 5537 5533 5530 5527 5524 5521 5518 5515 5512 5509 5507
5613 5611 5610 5608 5607 5605 5603 5601 5599 5597 5594 5592 5590 5587 5585 5582 5578 5575 5572 5569 5565 5562 5558 5555 5551 5548 5544 5541 5538 5535 5531 5528 5524 5521 5517 5513 5510 5507 5503 5499 5496 5493 5491
5608 5606 5604 5603 5601 5599 5597 5595 5592 5590 5588 5585 5583 5580 5577 5573 5570 5567 5563 5559 5556 5552 5548 5545 5541 5537 5534 5530 5526 5523 5519 5516 5512 5508 5504 5501 5497 5493 5489 5485 5482 5478 5476
5601 5600 5598 5596 5594 5592 5590 5588 5586 5583 5581 5578 5575 5572 5569 5565 5562 5558 5554 5550 5546 5542 5538 5534 5530 5526 5522 5519 5515 5511 5507 5503 5499 5496 5492 5488 5484 5480 5476 5472 5468 5465 5463
5595 5593 5591 5590 5587 5585 5583 5581 5578 5576 5573 5570 5567 5564 5561 5557 5553 5549 5544 5540 5535 5531 5527 5522 5518 5514 5511 5507 5503 5499 5495 5491 5487 5483 5479 5475 5470 5466 5463 5459 5456 5453 5450
5587 5585 5584 5582 5580 5578 5575 5573 5570 5568 5565 5562 5559 5556 5552 5548 5544 5540 5535 5530 5525 5520 5515 5511 5507 5503 5499 5495 5491 5486 5482 5478 5474 5469 5465 5461 5457 5453 5450 5447 5444 5441 5438
5579 5577 5575 5573 5571 5569 5567 5564 5561 5559 5556 5553 5550 5546 5542 5539 5534 5530 5525 5520 5514 5510 5505 5500 5496 5492 5488 5483 5479 5474 5470 5465 5461 5457 5452 5448 5444 5441 5438 5434 5431 5429 5426
5569 5568 5566 5564 5562 5560 5557 5554 5552 5549 5546 5543 5540 5536 5532 5528 5524 5519 5514 5509 5504 5499 5495 5490 5486 5482 5477 5472 5468 5463 5458 5454 5449 5445 5441 5437 5433 5429 5426 5423 5420 5417 5415
5559 5558 5556 5554 5552 5550 5548 5545 5542 5539 5536 5533 5530 5526 5522 5518 5514 5509 5504 5499 5494 5489 5485 5480 5476 5471 5466 5462 5457 5452 5448 5443 5439 5435 5430 5426 5422 5419 5416 5413 5410 5407 5405
5549 5547 5546 5544 5542 5540 5537 5534 5532 5529 5526 5523 5519 5516 5512 5508 5503 5499 5494 5489 5484 5479 5475 5470 5465 5460 5456 5451 5446 5442 5437 5433 5429 5424 5420 5416 5412 5409 5406 5403 5400 5398 5396
5538 5537 5535 5533 5531 5529 5527 5524 5521 5519 5516 5512 5509 5505 5501 5497 5493 5488 5484 5479 5474 5469 5464 5460 5455 5450 5446 5441 5436 5431 5427 5423 5418 5415 5411 5407 5403 5400 5397 5394 5391 5389 5387
5526 5525 5524 5522 5520 5518 5516 5513 5511 5508 5505 5502 5498 5495 5491 5487 5482 5478 5473 5469 5464 5459 5454 5450 5445 5440 5436 5431 5426 5421 5417 5413 5409 5405 5402 5398 5394 5391 5388 5386 5383 5381 5379
5515 5514 5512 5511 5509 5507 5505 5503 5500 5497 5495 5491 5488 5484 5480 5476 5472 5467 5463 5458 5453 5449 5444 5440 5435 5430 5426 5421 5417 5412 5408 5404 5400 5396 5393 5390 5386 5383 5381 5378 5376 5374 5372
5503 5502 5501 5500 5498 5496 5494 5492 5489 5487 5484 5481 5477 5474 5470 5466 5461 5457 5453 5448 5443 5439 5434 5430 5425 5421 5416 5412 5408 5403 5399 5395 5392 5388 5385 5382 5378 5376 5373 5371 5369 5367 5365
5492 5491 5490 5488 5487 5485 5483 5481 5479 5476 5473 5470 5467 5463 5459 5456 5451 5447 5443 5438 5434 5429 5425 5420 5416 5412 5408 5403 5399 5395 5391 5387 5383 5380 5377 5374 5371 5368 5366 5364 5362 5360 5359
5480 5479 5478 5477 5475 5474 5472 5470 5468 5466 5463 5460 5456 5453 5449 5446 5441 5437 5433 5429 5424 5420 5415 5411 5407 5403 5399 5395 5390 5386 5383 5379 5375 5372 5369 5366 5364 5361 5359 5357 5356 5354 5353
5469 5468 5467 5465 5464 5463 5461 5459 5457 5455 5452 5449 5446 5443 5439 5435 5431 5427 5423 5419 5415 5411 5406 5402 5398 5394 5390 5386 5382 5378 5375 5371 5368 5365 5362 5359 5357 5355 5353 5351 5350 5349 5347